Regional Weather Roundup
Issued by NWS Northern Indiana

Home | Current Version | Previous Version | Text Only | Print | Product List | Glossary Off
Versions: 1 2 3 4 5 6 7 8 9 10 11 12 13 14 15 16 17 18 19 20 21 22 23 24 25 26 27 28 29 30 31 32 33 34 35 36 37 38 39 40 41 42 43 44 45 46 47 48 49 50

000
ASUS43 KIWX 252110
RWRIWX

KIWX WEATHER ROUNDUP
NATIONAL WEATHER SERVICE NORTHERN INDIANA
500 PM EDT THU AUG 25 2016

NOTE: "FAIR" INDICATES FEW OR NO CLOUDS BELOW 12,000 FEET WITH NO
SIGNIFICANT WEATHER AND/OR OBSTRUCTIONS TO VISIBILITY.

* THESE STATIONS ARE NOT UNDER NWS QUALITY CONTROL. THEY ALSO MAY NOT
  REPORT WEATHER SUCH AS PRECIPITATION OR FOG.

INZ001>027-252200-
NORTHERN INDIANA

CITY           SKY/WX    TMP DP  RH WIND       PRES   REMARKS
GARY*          PTSUNNY   81  72  74 VRB5      30.04S
VALPARAISO     PTSUNNY   80  70  71 W6        30.04S
MICHIGAN CITY* MOSUNNY   77  68  73 MISG      30.05R
LAPORTE*       PTSUNNY   81  75  82 NW6       30.05R
KNOX*          MOSUNNY   81  50  34 W8        30.03S
SOUTH BEND     MOSUNNY   79  70  74 NW9       30.04F
GOSHEN         MOSUNNY   81  70  69 W13       30.02F
MONTICELLO*    PTSUNNY   82  67  61 W8        30.04S
LOGANSPORT*    MOSUNNY   82  70  65 W9        30.05S
ROCHESTER*     MOSUNNY   84  72  65 W6        30.04S
WARSAW*        PTSUNNY   82  79  89 W12       30.03F
ANGOLA*        PTSUNNY   82  77  83 W10       30.02F
FORT WAYNE     MOSUNNY   84  69  60 W15G22    30.03F
HUNTINGTON*    CLOUDY   N/A N/A N/A W9        30.03S
PERU/GRISSOM   PTSUNNY   83  71  65 W13       30.04S
MARION*        MOSUNNY   84  69  59 W10       30.05F HAZE

$$
INZ028>050-252200-
CENTRAL INDIANA

CITY           SKY/WX    TMP DP  RH WIND       PRES   REMARKS
LAFAYETTE      CLOUDY    83  70  64 W10       30.04S
MUNCIE*        SUNNY     86  70  58 W12       30.04F
INDIANAPOLIS   MOSUNNY   89  70  53 SW16      30.05F

$$
MIZ043>046-050>051-056>058-064>065-071>073-077>080-252200-
SOUTHWEST LOWER MICHIGAN

CITY           SKY/WX    TMP DP  RH WIND       PRES   REMARKS
BATTLE CREEK   MOSUNNY   79  70  74 W13       30.02R
BENTON HARBOR  SUNNY     77  67  71 NW7       30.03F
COLDWATER*     CLOUDY    79  69  71 W12G17    30.02S
HILLSDALE*     MOSUNNY   81  69  65 W14       30.02R
HOLLAND        SUNNY     76  65  68 W8        30.03R
GRAND RAPIDS   MOSUNNY   81  62  52 W15       30.00S
KALAMAZOO      PTSUNNY   81  68  64 W16       30.02R
STURGIS*       MOSUNNY   82  70  68 W8        30.02S
THREE RIVERS*  FAIR      81  70  70 W12       30.02F

$$
OHZ001>008-015>018-024>025-252200-
NORTHWEST OHIO

CITY           SKY/WX    TMP DP  RH WIND       PRES   REMARKS
WAUSEON*       PTSUNNY   82  72  69 W9G17     30.00R
DEFIANCE       SUNNY     86  69  56 SW9G16    30.00F
FINDLAY        MOSUNNY   88  69  53 W22       30.00S
TOLEDO EXPRESS MOSUNNY   86  69  56 W18G26    29.98S
TOLEDO METCALF MOSUNNY   87  70  56 W21       29.98F
LIMA           MOSUNNY   85  73  67 W18G25    30.03S

$$
AND FOR LAKE MICHIGAN COASTAL AND OPEN LAKE BUOY OBSERVATIONS

STATION/POSITION TEMP    WIND        PRES    VSBY  WAVE
                 AIR SEA DIR/SP/G                  HT/PER
                 (F)     (DEG/KT/KT) (MB)    (MI)  (FT/S)
CALUMET HARBOR    74      50/  8/  9 1016.4F
MICHIGAN CITY     76     330/  4/  5   N/A
BURNS HARBOR      75      40/  4/  6 1017.6F
SAINT JOSEPH      75     300/  4/  6 1017.3F
SOUTH LAKE BUOY   73 75  330/  2/  4 1016.1R         1/ 3
4 MI NW BRIDGMAN  74 75  300/  4/  6 1016.8F         1/ 4
MICHIGAN CITY     74 74   20/  4/  4   N/A           1/ 3

$$
&&



USA.gov is the U.S. government's official web portal to all federal, state and local government web resources and services.